Weather Roundup
Issued by NWS

Home | Current Version | Previous Version | Graphics & Text | Print | Product List | Glossary Off
Versions: 1 2 3 4 5 6 7 8 9 10 11 12 13 14 15 16 17 18 19 20 21 22 23 24 25 26 27 28 29 30 31 32 33 34 35 36 37 38 39 40 41 42 43 44 45 46 47 48 49 50

000
NZUS93 KARX 012310
HRRWXR

CURRENT HOURLY OBSERVATIONS ACROSS
MUCH OF THE UPPER MISSISSIPPI VALLEY
NATIONAL WEATHER SERVICE LA CROSSE WI
600 PM CDT WED JUL 01 2015


...SOUTHEAST MINNESOTA...


CITY           SKY/WX    TMP DP  RH WIND       PRES   REMARKS
ROCHESTER      MOSUNNY   63  52  67 NE5       30.02S
ROCHESTER/MAYO FAIR      65  49  57 CALM      30.01S
WINONA         PTSUNNY   70  50  49 CALM      29.99S
AUSTIN         PTSUNNY   63  50  63 E6        30.01R
ALBERT LEA     PTSUNNY   64  52  63 NE6       30.00S
DODGE CENTER   MOSUNNY   64  48  55 E7        30.01S
PRESTON        PTSUNNY   61  52  71 CALM      30.01S
OWATONNA       MOSUNNY   66  50  55 NE5       30.01S
FARIBAULT      MOSUNNY   66  46  48 NE5       30.01S
$$

...ELSEWHERE IN MINNESOTA...


CITY           SKY/WX    TMP DP  RH WIND       PRES   REMARKS
MINNEAPOLIS    MOSUNNY   72  52  49 S5        29.99S
INTNL FALLS    SUNNY     78  53  41 W3        29.94F
DULUTH         MOSUNNY   70  55  59 SE9       29.99S
RED WING       MOSUNNY   72  52  49 CALM      29.98S
REDWOOD FALLS  SUNNY     70  51  51 SE10      29.99S
MANKATO        MOSUNNY   66  50  55 E7        30.00S
WORTHINGTON    PTSUNNY   72  50  46 E9        29.97S
FAIRMONT       MOSUNNY   66  52  59 E7        29.98S
$$

...SOUTHWEST WISCONSIN...


CITY           SKY/WX    TMP DP  RH WIND       PRES   REMARKS
LA CROSSE      MOSUNNY   71  51  49 W5        29.97F
PRAIRIE DU CHI CLOUDY    66  49  55 CALM      29.97S
BOSCOBEL       CLOUDY    69  51  52 NE5       29.97F
LONE ROCK      PTSUNNY   69  51  52 NE7       29.97F
PLATTEVILLE    CLOUDY    65  52  61 NE5       29.97S
FORT MC COY    SUNNY     73  44  35 N3        29.98S
CAMP DOUGLAS   MOSUNNY   70  50  49 NE2       29.97S
VIROQUA        FAIR      68  48  50 NE3       29.98F
WIS DELLS      MOSUNNY   70  45  40 CALM      29.97S
$$

...ELSEWHERE IN WISCONSIN...


CITY           SKY/WX    TMP DP  RH WIND       PRES   REMARKS
MILWAUKEE      CLOUDY    55  50  83 NE7       30.00R
MADISON        CLOUDY    67  51  56 NE5       29.97S
GREEN BAY      MOSUNNY   71  52  50 N6        29.97S
EAU CLAIRE     SUNNY     73  50  44 N5        29.98S
BLACK RVR FLS  FAIR      72  42  33 CALM      29.97F
MEDFORD        SUNNY     70  47  42 N6        29.99F
WAUSAU         SUNNY     72  42  34 NE7       29.97S
WIS RAPIDS     SUNNY     72  45  37 VRB3      29.99S
MARSHFIELD     SUNNY     72  42  34 VRB5      29.98S
RICE LAKE      SUNNY     72  49  44 N3        30.01S
$$

...NORTHEAST IOWA...


CITY           SKY/WX    TMP DP  RH WIND       PRES   REMARKS
DECORAH          N/A    N/A N/A N/A MISG        N/A
MASON CITY     CLOUDY    64  57  78 E5        30.00S
CHARLES CITY   CLOUDY    64  54  68 NE5       30.00R
OELWEIN          N/A     64  55  72 NE8       29.98S
$$

...ELSEWHERE IN IOWA...


CITY           SKY/WX    TMP DP  RH WIND       PRES   REMARKS
DES MOINES     CLOUDY    75  62  64 NE12      29.91S
IOWA CITY      PTSUNNY   73  58  59 NE13      29.94R
FORT DODGE     PTSUNNY   68  57  68 E12       29.96S
$$

...NORTHERN ILLINOIS...


CITY           SKY/WX    TMP DP  RH WIND       PRES   REMARKS
CHICAGO-OHARE  PTSUNNY   61  50  67 NE9       29.98R
CHICAGO-MIDWAY PTSUNNY   63  52  67 E10       29.97R
MOLINE         MOSUNNY   74  60  61 MISG      29.92S
ROCKFORD       CLOUDY    70  50  49 NE8       29.96F
PEORIA         CLOUDY    76  64  66 NE13      29.91R
$$

NOTE: "FAIR" INDICATES FEW OR NO CLOUDS BELOW 12,000 FEET WITH NO
SIGNIFICANT WEATHER AND/OR OBSTRUCTIONS TO VISIBILITY. WIND
SPEEDS ARE IN MILES-PER-HOUR.



USA.gov is the U.S. government's official web portal to all federal, state and local government web resources and services.